Regional Weather Roundup
Issued by NWS Sioux Falls, SD

Home | Current Version | Previous Version | Text Only | Print | Product List | Glossary Off
Versions: 1 2 3 4 5 6 7 8 9 10 11 12 13 14 15 16 17 18 19 20 21 22 23 24 25 26 27 28 29 30 31 32 33 34 35 36 37 38 39 40 41 42 43 44 45 46 47 48 49 50

000
ASUS43 KFSD 241710
RWRFSD

WEATHER ROUNDUP FOR SE SOUTH DAKOTA/SW MINNESOTA/NW IOWA
NATIONAL WEATHER SERVICE SIOUX FALLS SD
1200 PM CDT FRI MAR 24 2017

NOTE: "FAIR" INDICATES FEW OR NO CLOUDS BELOW 12,000 FEET WITH NO
SIGNIFICANT WEATHER AND OR OBSTRUCTIONS TO VISIBILITY.


SDZ038>040-050-052>070-241800-
SOUTHEAST SOUTH DAKOTA

CITY           SKY/WX    TMP DP  RH WIND       PRES   REMARKS
BROOKINGS      CLOUDY    38  34  85 N17       30.01F
CHAMBERLAIN    PTSUNNY   46  38  73 NW13      30.07F
HURON          CLOUDY    39  36  89 N18       30.09S
MADISON        FAIR      39  39 100 N23       30.00F
MITCHELL       CLOUDY    44  37  76 N18       30.06R
SIOUX FALLS    CLOUDY    41  37  86 NE17      30.03R
WINNER         CLOUDY    49  36  61 N14G22    30.08S
YANKTON        CLOUDY    39  36  87 N16       30.04R
$$

MNZ071-072-080-081-089-090-097-098-241800-
SOUTHWEST MINNESOTA

CITY           SKY/WX    TMP DP  RH WIND       PRES   REMARKS
FAIRMONT       CLOUDY    38  37  97 N17       29.98R FOG
JACKSON        CLOUDY    36  36 100 N18       29.99R FOG
LUVERNE        CLOUDY    36  34  93 NE10G22   30.03R
MARSHALL       NOT AVBL
MONTEVIDEO     CLOUDY    41  37  87 N14       30.09S
PIPESTONE      CLOUDY    39  34  81 NE15G22   30.01R
REDWOOD FALLS  CLOUDY    42  36  79 N10G20    30.03F
TRACY          CLOUDY    39  37  94 N15       30.03R
WINDOM         CLOUDY    37  37 100 N17G23    30.00S FOG
WORTHINGTON    CLOUDY    36  35  96 N16       30.01R FOG
$$

IAZ001>003-012>014-020>022-031-032-NEZ013-014-SDZ071-241800-
NORTHWEST IOWA

CITY           SKY/WX    TMP DP  RH WIND       PRES   REMARKS
CHEROKEE       CLOUDY    40  40  97 N12       29.98R
ESTHERVILLE    CLOUDY    37  37 100 N17       29.98R FOG
LE MARS        CLOUDY    39  37  93 N12G18    30.01R
ORANGE CITY    DRIZZLE   37  37 100 N12       30.00R
SHELDON        CLOUDY    37  37 100 NE17      29.99R FOG
SIOUX CITY     CLOUDY    42  39  89 N14       29.98R
SPENCER        CLOUDY    39  38  96 N17       29.98R FOG
STORM LAKE     PTSUNNY   41  39  93 NE16      29.95R FOG
$$

ABBREVIATIONS USED IN REMARKS
   TC - TEMPERATURE IN CELSIUS
  WCI - WIND CHILL INDEX
   HX - HEAT INDEX
  VSB - VISIBILITY





USA.gov is the U.S. government's official web portal to all federal, state and local government web resources and services.